Location: Holmes Observatory
(37.1039°N, 122.0513°W)
Time: 19:17:22
(UTC-07:00)

Daily predictions for brighter satellites

Satellite Brightness Start Highest point End
(mag) Time Altitude Azimuth Time Altitude Azimuth Time Altitude Azimuth
Cosmos 2219 4.1 20:01:22 10° NNW 20:06:49 53° WSW 20:12:15 10° S
Cosmos 1633 3.5 20:05:54 10° SSW 20:09:28 54° W 20:13:03 10° N
FREGAT/IRIS 3.8 20:07:24 10° S 20:10:27 49° W 20:13:30 10° NNW
Cosmos 1777 Rocket 4.0 20:05:49 10° NNW 20:11:06 83° ENE 20:16:22 10° SSE
OAO 2 Rocket 3.5 20:07:01 10° WSW 20:11:54 58° SSE 20:16:54 10° E
Cosmos 1697 Rocket 3.7 20:10:09 10° SSE 20:14:33 24° E 20:18:58 10° NE
Delta 2 Rocket 4.4 20:13:38 10° W 20:19:19 60° SSW 20:24:27 11° ESE
Resurs 01 Rocket 2.0 20:16:03 10° S 20:20:27 70° WSW 20:24:54 10° NNW
Cosmos 2278 3.7 20:16:18 10° SSW 20:21:58 83° ESE 20:27:41 10° NNE
Cosmos 1544 Rocket 3.6 20:17:53 10° S 20:22:15 85° W 20:26:42 10° N
METEOR-M 4.4 20:17:07 10° S 20:22:27 75° WSW 20:27:48 10° NNW
Cosmos 1934 Rocket 4.0 20:20:16 10° S 20:26:22 85° E 20:32:37 10° N
H-2A R/B 3.2 20:22:48 10° SE 20:26:29 43° ENE 20:30:13 10° N
Meteor 2-4 Rocket 4.2 20:20:39 10° NNW 20:26:31 72° W 20:32:24 10° S
ALOS 2.4 20:21:58 10° SSE 20:26:33 59° ENE 20:31:09 10° N
Cosmos 1975 3.5 20:23:04 10° SSE 20:26:46 34° E 20:30:30 10° NNE
CZ-4B DEB 2.7 20:23:38 10° SSE 20:26:53 74° ENE 20:30:10 10° N
USA 186 2.4 20:24:55 10° SE 20:27:45 32° ENE 20:30:25 10° N
NOSS 3-4 (A) 3.9 20:22:00 10° NNW 20:29:07 85° ENE 20:36:38 10° SSE
NOSS 3-4 (C) 3.9 20:22:08 10° NNW 20:29:15 84° ENE 20:36:46 10° SSE
Cosmos 2208 Rocket 4.3 20:26:43 10° SSW 20:32:00 74° WNW 20:37:25 10° NNE
Spot 2 Rocket 4.3 20:27:36 10° S 20:32:35 54° W 20:37:34 10° NNW
Helios 1B rocket 4.2 20:29:06 10° N 20:32:54 37° WNW 20:36:42 10° SW
Lacrosse 5 rocket 1.6 20:31:25 10° NNW 20:35:00 43° NE 20:37:27 17° ESE
OTV 4 0.6 20:32:13 10° W 20:35:09 61° SSW 20:37:04 19° ESE
Cosmos 2369 3.8 20:30:27 10° SSW 20:36:07 85° WNW 20:41:51 10° NNE
Cosmos 1980 Rocket 3.3 20:33:23 10° SSE 20:37:40 22° E 20:41:57 10° NE
Okean 2 3.8 20:34:41 10° NNW 20:38:51 69° W 20:42:57 10° S
BREEZE-M DEB (TANK) 4.0 20:39:09 10° WSW 20:42:48 82° NW 20:55:20 10° NE
Envisat 4.2 20:40:38 16° ESE 20:43:12 23° ENE 20:47:10 10° NNE
EO 1 Delta rocket 4.0 20:39:27 10° NNE 20:44:14 80° E 20:49:51 10° S
CZ-2D R/B 3.2 20:43:17 10° SSE 20:47:08 89° WSW 20:51:03 10° NNW
Iridium 4 Rocket 3.6 20:42:40 10° N 20:47:28 45° E 20:51:25 12° SSE
Tiangong 1 2.7 20:46:35 10° WNW 20:49:19 27° N 20:51:20 15° ENE
Hubble Space Telescope 3.2 20:51:28 10° SW 20:53:07 12° SSW 20:54:45 10° S
FENGYUN 3A 3.9 20:52:56 10° S 20:58:16 71° WSW 21:03:37 10° NNW
Cosmos 1500 3.2 20:55:52 10° S 20:59:26 52° E 21:03:07 10° NNE
Meteor 1-12 Rocket 4.3 20:54:56 10° S 21:00:39 85° W 21:06:31 10° N
Cosmos 1656 3.6 20:56:20 10° SSW 21:01:58 88° ESE 21:07:33 10° NNE
Cosmos 1939 Rocket 3.7 21:01:50 28° ESE 21:02:59 34° ENE 21:06:45 10° N
Cosmos 2150 Rocket 4.2 21:02:20 10° N 21:07:21 51° ENE 21:09:44 29° SE
Cosmos 2227 Rocket 2.7 21:03:14 10° NNW 21:08:48 61° WSW 21:14:17 10° S
BREEZE-M TANK 3.8 20:58:21 10° WNW 21:09:57 53° N 21:12:07 25° ENE
Cosmos 1461 3.8 21:06:32 10° NW 21:10:20 42° WSW 21:13:01 17° S
Cosmos 2173 Rocket 4.2 21:04:28 10° SSE 21:10:35 51° E 21:16:40 10° NNE
ERS-1 Rocket 3.1 21:08:10 26° SE 21:10:52 56° ENE 21:15:47 10° N
Cosmos 1340 4.2 21:09:19 10° NNE 21:11:43 22° ENE 21:11:43 22° ENE
Lacrosse 5 2.6 21:08:40 10° NNW 21:13:26 39° NE 21:15:16 29° E
YAOGAN 11 4.1 21:15:33 29° SSE 21:17:48 74° ENE 21:22:16 10° N
H-2A R/B 2.9 21:17:54 30° ENE 21:17:55 30° ENE 21:21:33 10° N
SPOT 5 3.8 21:19:02 30° E 21:19:42 31° ENE 21:23:58 10° N
DELTA 2 R/B (1) 3.5 21:15:22 10° WNW 21:20:57 83° SSW 21:23:11 38° ESE
Cosmos 1763 Rocket 3.7 21:21:33 35° SE 21:23:04 44° ESE 21:27:52 10° NNE
Cosmos 1626 Rocket 4.2 21:19:29 10° NNW 21:23:47 54° W 21:27:25 14° SSW
Cosmos 2297 Rocket 2.5 21:18:28 10° NNW 21:24:05 64° WSW 21:28:02 20° S
Cosmos 2100 Rocket 3.9 21:18:07 10° S 21:24:22 73° E 21:30:36 10° N
Cosmos 1515 3.9 21:21:19 10° NNW 21:25:09 70° W 21:26:46 32° S
Cosmos 1898 Rocket 3.4 21:20:51 10° NNW 21:26:11 83° ENE 21:28:26 35° SSE
CZ-4 DEB 2.8 21:28:30 69° SW 21:28:38 70° WSW 21:31:46 10° NNW
Cosmos 2061 Rocket 3.9 21:25:30 10° S 21:31:48 76° E 21:38:04 10° N
RESURS DK-1 2.5 21:28:13 10° NNW 21:32:17 54° ENE 21:32:21 54° ENE
Cosmos 2084 3.3 21:32:31 10° NW 21:36:38 83° WSW 21:37:09 67° SSE
Cosmos 1743 2.6 21:36:51 77° S 21:37:06 87° ESE 21:41:03 10° N
deb Chang Zheng 4 3.5 21:33:27 10° NNE 21:37:54 65° ESE 21:38:04 64° ESE
Nimbus 7 Rocket 4.4 21:33:13 10° NNE 21:39:16 66° ESE 21:42:46 26° S
Cosmos 841 Rocket 3.4 21:44:51 57° SSE 21:45:36 65° ESE 21:50:48 10° NNE
Terra 4.2 21:50:19 11° NE 21:50:19 11° NE 21:50:37 10° NE
Cosmos 1459 Rocket 4.2 21:50:08 10° SSW 21:56:08 66° W 22:02:12 10° N
OAO 2 Rocket 3.3 21:51:32 10° W 21:56:23 68° SSW 21:56:23 68° SSW
Cosmos 1725 Rocket 3.9 21:57:34 58° ESE 21:57:52 58° E 22:03:59 10° NNE
Cosmos 2058 Rocket 4.0 21:59:31 38° NNE 21:59:31 38° NNE 22:02:26 10° NNE
Cosmos 1697 Rocket 3.9 21:52:52 10° SW 21:58:12 42° WNW 22:03:33 10° N
Cosmos 1606 Rocket 3.9 22:04:30 64° WNW 22:04:30 64° WNW 22:08:52 10° N
SL-16 R/B 3.7 22:09:53 23° NE 22:09:53 23° NE 22:12:05 10° NE
ASTEX 1 3.4 22:06:55 10° N 22:11:45 78° NW 22:11:45 78° NW
Lacrosse 5 rocket 3.7 22:11:51 10° W 22:13:11 14° WSW 22:13:11 14° WSW
ARGOS 3.5 22:16:35 52° NNE 22:16:35 52° NNE 22:20:59 10° N
CZ-3C R/B 4.1 21:58:44 10° W 22:18:06 25° SW 22:20:53 22° SSW
Cosmos 1980 Rocket 3.2 22:15:53 10° SW 22:21:17 45° WNW 22:26:45 10° N
Envisat 4.2 22:20:51 33° SW 22:21:58 37° W 22:26:40 10° NNW
BREEZE-M DEB (TANK) 4.4 22:11:14 10° WNW 22:29:08 50° NNE 22:30:47 41° NE
MetOp-B 4.5 22:30:24 61° W 22:30:24 61° W 22:35:25 10° NNW
H-2A R/B 3.5 22:39:08 27° NNE 22:39:08 27° NNE 22:41:33 10° N
Milstar 3 Cent rocket 4.2 22:33:30 10° W 22:50:25 47° SSW 22:51:21 46° SSW
Cosmos 2263 Rocket 3.5 22:45:35 10° N 22:48:52 31° NNE 22:48:52 31° NNE
Cosmos 2322 Rocket 3.3 22:56:07 38° N 22:56:07 38° N 22:59:39 10° NNE
Lacrosse 5 3.7 22:51:50 10° WNW 22:54:28 24° W 22:54:28 24° W
Terra 4.2 23:29:13 20° NNW 23:29:13 20° NNW 23:30:38 10° NNW
USA 215 4.0 23:37:56 48° NNW 23:37:56 48° NNW 23:42:27 10° NW
SL-16 R/B 4.2 23:51:41 23° NW 23:51:41 23° NW 23:55:28 10° N
